Location: Venise Bay
(45.0825°N, 73.1481°W)
Time: 15:47:46
(UTC-04:00)

Tiangong - Visible Passes

Search period start: 03 October 2023 00:00
Search period end: 13 October 2023 00:00
Orbit: 371 x 384 km, 41.5° (Epoch: 03 October)

Date Brightness Start Highest point End Pass type
(mag) Time Alt. Az. Time Alt. Az. Time Alt. Az.
03 Oct -1.1 20:17:18 10° WSW 20:19:46 38° SSW 20:19:46 38° SSW visible
04 Oct -1.4 19:15:20 10° WSW 19:18:19 40° S 19:20:34 15° ESE visible
04 Oct 0.7 20:51:49 10° WSW 20:52:37 16° WSW 20:52:37 16° WSW visible
05 Oct -1.4 19:49:39 10° WSW 19:52:38 40° S 19:53:20 34° SSE visible
06 Oct -1.3 18:47:28 10° WSW 18:50:28 42° S 18:53:27 10° ESE visible
06 Oct -0.2 20:24:05 10° WSW 20:26:01 24° SW 20:26:01 24° SW visible
07 Oct -1.0 19:21:42 10° WSW 19:24:35 35° S 19:26:36 17° SE visible
08 Oct -0.2 19:56:05 10° WSW 19:58:32 21° SSW 19:59:11 20° S visible
09 Oct -0.6 18:53:24 10° WSW 18:56:10 29° SSW 18:58:56 10° SE visible
10 Oct 0.4 19:27:54 10° WSW 19:29:50 15° SSW 19:31:47 10° SSE visible
12 Oct 0.9 18:59:57 10° SW 19:00:46 11° SSW 19:01:35 10° SSW visible
